FENGYUN 1C DEB *

Satellite information

Favourite Embed

Satellite Type and Status

DEBRISIN ORBIT

Key statistics

Satellite FENGYUN 1C DEB * at a glance.

Uptime

9661

Days in orbit

Revolutions

≈ 14.5

Per day

Orbit

SSO

Sun Synchronous Orbit

Inclination

99.0

Latest

Satellite identification and parameters

Extended collection of information and parameters for FENGYUN 1C DEB *.

Object identification

Identified? True

Debris? True

Object name: FENGYUN 1C DEB *

International designator: 1999-025FBY

Object number (NORAD): 47100

Object ID (CCSDS): 47100

Country: PEOPLES REPUBLIC OF CHINA (PRC)

Current information (Y/N): Y

RCS size: SMALL

Orbital parameters

Period: 99.297 minutes

Inclination: 99.023 deg

SMA: 7103.131 km

Apoapsis: 789.549 km

Periapsis: 660.442 km

RAAN: 109.5842 deg

Eccentricy: 0.00908804

Argument of periapsis: 152.6003 deg

Mean anomaly: 208.0024 deg

Mean motion: 14.50200503 rev/day

Mean motion (dot): 0.00015652 rev/day2

B* drag term: 0.0038215337 1/REarth

Two-line elements (TLE)

Creation date: Oct. 21, 2025, 3:26 a.m.

Reference frame: TEME

Reference center: EARTH

Epoch: Oct. 20, 2025, 8:43 p.m. UTC

TLE line 0: 0 FENGYUN 1C DEB *

TLE line 1: 1 47100U 99025FBY 25293.86386018 .00015652 00000-0 38215-2 0 9998

TLE line 2: 2 47100 99.0230 109.5842 0090880 152.6003 208.0024 14.50200503260013

Live tracking on map

Real-time ground track for satellite FENGYUN 1C DEB *.

In-orbit conjunctions

A list of the most updated potential collisions computed for object FENGYUN 1C DEB *.

Target Orbit TCA Probability of collision Miss distance Type
CZ-6A DEB LEO 2024-12-23 04:34:15 0.000133078 475.0 (m) DEBRIS
OBJECT B LEO 2024-10-24 12:31:20 0.0002527046 802.0 (m) UNKNOWN

Associated space launch

Chinese polar orbiting meteorological satellite

FENGYUN 1C DEB * was lifted into orbit during the mission ‘Long March 4B | Feng Yun 1C’, on board a Long March 4B space rocket.

The launch took place on May 10, 1999, 1:33 a.m. from Launch Complex 7.

For more information about the launch, click the button.

Launch to space Long March 4B | Feng Yun 1C
Long March 4B | Feng Yun 1C

Agency: N/A

Status: Launch Successful

Launch date: May 10, 1999, 1:33 a.m. UTC

Rocket: Long March 4B

Launch pad: Launch Complex 7

Location: Taiyuan Satellite Launch Center, People's Republic of China

...

Latest news about this satellite

There are no fresh news available about this satellite. Check back as we update our databases every day.


Newsletter sign-up

Weekly statistics, charts and insights to help you stay on top of the space industry.